This is the latest recevied weather packets stored in our database for station/object LU4HH-15. If no packets are shown the sender has not sent any weather packets the latest 10 day(s).
| Time | Temp. | Humidity | Pressure | Rain* | Wind** | Luminosity | Snow |
|---|---|---|---|---|---|---|---|
| 1788276053 | 17.22° C | 58% | 1029.6 hPa | - | - | - | - |
| 1788275184 | 16.67° C | 58% | 1029.7 hPa | - | - | - | - |
| 1788274283 | 16.11° C | 59% | 1029.7 hPa | - | - | - | - |
| 1788273381 | 16.11° C | 59% | 1029.9 hPa | - | - | - | - |
| 1788272481 | 15.56° C | 59% | 1030 hPa | - | - | - | - |
| 1788271580 | 15.56° C | 59% | 1029.9 hPa | - | - | - | - |
| 1788270686 | 15° C | 60% | 1030 hPa | - | - | - | - |
| 1788269777 | 15° C | 60% | 1030 hPa | - | - | - | - |
| 1788268876 | 15° C | 60% | 1030.1 hPa | - | - | - | - |
| 1788267975 | 14.44° C | 60% | 1030 hPa | - | - | - | - |
| 1788267075 | 14.44° C | 61% | 1030.1 hPa | - | - | - | - |
| 1788266173 | 14.44° C | 60% | 1029.8 hPa | - | - | - | - |
| 1788265272 | 13.89° C | 60% | 1029.6 hPa | - | - | - | - |
| 1788264371 | 13.89° C | 60% | 1029.6 hPa | - | - | - | - |
| 1788263470 | 13.89° C | 60% | 1029.4 hPa | - | - | - | - |
| 1788262561 | 13.89° C | 60% | 1029.3 hPa | - | - | - | - |
| 1788261660 | 13.89° C | 60% | 1029.1 hPa | - | - | - | - |
| 1788260760 | 13.89° C | 60% | 1029.1 hPa | - | - | - | - |
| 1788259859 | 13.89° C | 61% | 1028.7 hPa | - | - | - | - |
| 1788258958 | 13.89° C | 61% | 1028.8 hPa | - | - | - | - |
| 1788258057 | 13.89° C | 61% | 1028.9 hPa | - | - | - | - |
| 1788257156 | 13.89° C | 61% | 1028.9 hPa | - | - | - | - |
| 1788256255 | 13.89° C | 61% | 1028.7 hPa | - | - | - | - |
| 1788255353 | 14.44° C | 60% | 1028.5 hPa | - | - | - | - |
| 1788254452 | 16.11° C | 56% | 1028.3 hPa | - | - | - | - |
* Rain since midnight (hover to see other rain measurements)
** Current wind speed in m/s (hover to see current wind gust speed)